Date String (YYYY-MM-DD hh:mm:ss) UTC,Instrument flags,Ambient pressure (hPa),Sample flow (lpm),Bypass flow (lpm),Sample temperature (°C),Ambient temperature (°C),ASC tube jacket temperature (°C),LED temperature (°C),Box temperature (°C),Sample RH (%),Span deviation,Mass concentration (μg/m³),Mass concentration (μg/m³),Mass concentration (μg/m³)
DateTimeUTC,F1_M11,P_M11,Q1_M11,Q2_M11,T1_M11,T2_M11,T3_M11,T4_M11,T5_M11,U1_M11,ZSPAN_M11,X2_M11,X0_M11,X1_M11
2023-05-08 11:00:00,,0831.2,5.01,0.00,29.7,28.0,00.0,38.2,31.1,15.2,0000.0,0003.52,0008.12,0002.47
2023-05-08 11:01:00,,0831.2,5.01,0.00,29.7,28.0,00.0,38.1,31.0,15.2,0000.0,0003.48,0008.08,0002.44
2023-05-08 11:02:00,,0831.2,5.01,0.00,29.7,28.0,00.0,38.1,31.1,15.2,0000.0,0003.48,0008.09,0002.42
2023-05-08 11:03:00,,0831.2,5.00,0.00,29.7,28.0,00.0,38.1,31.0,15.1,0000.0,0003.46,0008.08,0002.37
2023-05-08 11:04:00,,0831.2,5.01,0.00,29.7,27.9,00.0,38.1,31.0,15.2,0000.0,0003.44,0008.10,0002.33
2023-05-08 11:05:00,,0831.1,4.98,0.00,29.7,27.9,00.0,38.1,31.0,15.1,0000.0,0003.42,0008.48,0002.29
2023-05-08 11:06:00,,0831.1,5.01,0.00,29.7,27.9,00.0,38.1,31.0,15.0,0000.0,0003.44,0008.76,0002.28
2023-05-08 11:07:00,,0831.1,5.00,0.00,29.7,27.9,00.0,38.1,31.0,15.0,0000.0,0003.42,0008.80,0002.26
2023-05-08 11:08:00,,0831.1,4.98,0.00,29.7,27.9,00.0,38.1,31.0,14.9,0000.0,0003.42,0008.72,0002.23
2023-05-08 11:09:00,,0831.1,5.02,0.00,29.7,27.9,00.0,38.1,31.0,14.9,0000.0,0003.41,0008.63,0002.20
2023-05-08 11:10:00,,0831.1,5.00,0.00,29.7,27.9,00.0,38.1,31.0,14.9,0000.0,0003.38,0008.55,0002.17
2023-05-08 11:11:00,,0831.2,4.98,0.00,29.7,27.9,00.0,38.1,31.0,15.0,0000.0,0003.32,0008.21,0002.15
2023-05-08 11:12:00,,0831.2,5.00,0.00,29.7,27.9,00.0,38.1,31.0,15.2,0000.0,0003.32,0007.91,0002.14
2023-05-08 11:13:00,,0831.1,5.00,0.00,29.7,27.9,00.0,38.1,31.0,15.2,0000.0,0003.34,0007.96,0002.15
2023-05-08 11:14:00,,0831.2,5.01,0.00,29.6,27.9,00.0,38.1,31.0,15.0,0000.0,0003.38,0008.09,0002.17
2023-05-08 11:15:00,,0831.2,5.00,0.00,29.6,27.9,00.0,38.1,31.0,15.1,0000.0,0003.39,0008.34,0002.17
2023-05-08 11:16:00,,0831.3,4.99,0.00,29.6,27.9,00.0,38.1,31.0,15.1,0000.0,0003.38,0008.30,0002.18
2023-05-08 11:17:00,,0831.3,5.00,0.00,29.6,27.9,00.0,38.1,31.0,15.0,0000.0,0003.40,0008.32,0002.17
2023-05-08 11:18:00,,0831.3,5.01,0.00,29.6,27.9,00.0,38.0,31.0,15.0,0000.0,0003.42,0007.95,0002.16
2023-05-08 11:19:00,,0831.3,4.99,0.00,29.6,27.9,00.0,38.0,31.1,15.0,0000.0,0003.43,0008.04,0002.17
2023-05-08 11:20:00,,0831.3,5.00,0.00,29.6,27.9,00.0,38.0,31.0,15.0,0000.0,0003.44,0008.10,0002.18
2023-05-08 11:21:00,,0831.3,5.01,0.00,29.6,27.8,00.0,38.0,31.0,15.1,0000.0,0003.44,0008.14,0002.18
2023-05-08 11:22:00,,0831.3,5.01,0.00,29.6,27.8,00.0,38.0,30.9,15.1,0000.0,0003.45,0008.28,0002.18
2023-05-08 11:23:00,,0831.3,4.99,0.00,29.6,27.8,00.0,38.0,30.9,15.1,0000.0,0003.44,0008.36,0002.18
2023-05-08 11:24:00,,0831.3,4.99,0.00,29.6,27.8,00.0,38.0,30.9,15.2,0000.0,0003.37,0008.14,0002.16
2023-05-08 11:25:00,,0831.3,5.01,0.00,29.6,27.8,00.0,38.0,30.9,15.2,0000.0,0003.30,0008.26,0002.15
2023-05-08 11:26:00,,0831.3,5.01,0.00,29.6,27.8,00.0,38.0,31.0,15.2,0000.0,0003.27,0008.22,0002.14
2023-05-08 11:27:00,,0831.2,4.99,0.00,29.5,27.8,00.0,38.0,30.9,15.2,0000.0,0003.26,0008.09,0002.13
2023-05-08 11:28:00,,0831.3,4.99,0.00,29.5,27.7,00.0,38.0,30.9,15.1,0000.0,0003.23,0008.11,0002.12
2023-05-08 11:29:00,,0831.3,5.01,0.00,29.5,27.8,00.0,38.0,30.9,15.1,0000.0,0003.26,0008.44,0002.13
2023-05-08 11:30:00,,0831.3,4.99,0.00,29.5,27.8,00.0,38.0,30.9,15.0,0000.0,0003.22,0008.79,0002.12
2023-05-08 11:31:00,,0831.3,5.00,0.00,29.5,27.7,00.0,37.9,30.8,15.0,0000.0,0003.23,0008.82,0002.11
2023-05-08 11:32:00,,0831.3,5.01,0.00,29.5,27.7,00.0,37.9,30.9,15.0,0000.0,0003.24,0008.80,0002.10
2023-05-08 11:33:00,,0831.3,4.99,0.00,29.5,27.7,00.0,37.9,30.9,15.1,0000.0,0003.24,0008.90,0002.08
2023-05-08 11:34:00,,0831.3,5.00,0.00,29.5,27.7,00.0,37.9,30.8,15.0,0000.0,0003.21,0008.70,0002.05
2023-05-08 11:35:00,,0831.3,5.01,0.00,29.5,27.7,00.0,37.9,30.8,15.0,0000.0,0003.24,0009.21,0002.03
2023-05-08 11:36:00,,0831.3,5.00,0.00,29.5,27.7,00.0,37.9,30.8,15.1,0000.0,0003.27,0009.48,0002.01
2023-05-08 11:37:00,,0831.3,4.99,0.00,29.4,27.7,00.0,37.9,30.8,15.1,0000.0,0003.28,0009.80,0002.01
2023-05-08 11:38:00,,0831.3,5.00,0.00,29.4,27.7,00.0,37.9,30.8,15.1,0000.0,0003.23,0009.86,0001.99
2023-05-08 11:39:00,,0831.3,5.00,0.00,29.4,27.6,00.0,37.9,30.7,15.2,0000.0,0003.19,0009.42,0001.99
2023-05-08 11:40:00,,0831.3,5.01,0.00,29.4,27.6,00.0,37.9,30.7,15.2,0000.0,0003.17,0009.22,0001.99
2023-05-08 11:41:00,,0831.3,5.01,0.00,29.4,27.6,00.0,37.9,30.7,15.2,0000.0,0003.22,0008.88,0002.00
2023-05-08 11:42:00,,0831.3,4.99,0.00,29.4,27.6,00.0,37.8,30.7,15.2,0000.0,0003.27,0009.05,0002.03
2023-05-08 11:43:00,,0831.3,5.00,0.00,29.4,27.6,00.0,37.8,30.7,15.2,0000.0,0003.28,0009.16,0002.06
2023-05-08 11:44:00,,0831.3,5.00,0.00,29.3,27.5,00.0,37.8,30.7,15.3,0000.0,0003.28,0009.10,0002.07
2023-05-08 11:45:00,,0831.3,5.00,0.00,29.3,27.5,00.0,37.8,30.7,15.4,0000.0,0003.30,0009.10,0002.13
2023-05-08 11:46:00,,0831.3,5.01,0.00,29.3,27.5,00.0,37.8,30.6,15.4,0000.0,0003.32,0008.70,0002.17
2023-05-08 11:47:00,,0831.3,5.00,0.00,29.3,27.5,00.0,37.8,30.6,15.5,0000.0,0003.34,0008.34,0002.23
2023-05-08 11:48:00,,0831.4,5.00,0.00,29.3,27.5,00.0,37.8,30.7,15.5,0000.0,0003.39,0007.88,0002.28
2023-05-08 11:49:00,,0831.4,4.98,0.00,29.3,27.5,00.0,37.8,30.7,15.5,0000.0,0003.47,0007.57,0002.33
2023-05-08 11:50:00,,0831.3,5.01,0.00,29.3,27.4,00.0,37.7,30.6,15.6,0000.0,0003.50,0007.69,0002.39
2023-05-08 11:51:00,,0831.3,5.01,0.00,29.3,27.4,00.0,37.7,30.6,15.5,0000.0,0003.51,0007.90,0002.43
2023-05-08 11:52:00,,0831.4,4.98,0.00,29.2,27.4,00.0,37.7,30.6,15.6,0000.0,0003.52,0007.91,0002.47
2023-05-08 11:53:00,,0831.3,5.00,0.00,29.2,27.4,00.0,37.7,30.6,15.6,0000.0,0003.52,0007.81,0002.51
2023-05-08 11:54:00,,0831.3,5.00,0.00,29.2,27.4,00.0,37.7,30.5,15.7,0000.0,0003.56,0007.75,0002.57
2023-05-08 11:55:00,,0831.3,5.00,0.00,29.2,27.4,00.0,37.7,30.6,15.6,0000.0,0003.59,0007.68,0002.62
2023-05-08 11:56:00,,0831.3,5.00,0.00,29.2,27.4,00.0,37.7,30.5,15.4,0000.0,0003.58,0007.71,0002.62
2023-05-08 11:57:00,,0831.3,5.00,0.00,29.2,27.4,00.0,37.7,30.5,15.3,0000.0,0003.55,0007.60,0002.61
2023-05-08 11:58:00,,0831.3,5.00,0.00,29.2,27.4,00.0,37.7,30.5,15.3,0000.0,0003.52,0008.11,0002.59
2023-05-08 11:59:00,,0831.3,5.01,0.00,29.2,27.4,00.0,37.6,30.5,15.3,0000.0,0003.51,0008.53,0002.59
